SCP
0 0 0 0 0 0 0 0 0 0 0 0 0 0 0 0 0 0 0 0 0 0 0 0 0 0 0 0 0 0 0 0 1 1 1 1 1 1
0 0 0 0 0 0 0 0 0 0 0 0 0 0 0 0 0 0 0 0 0 0 0 0 0 0 0 0 0 0 0 0 1 1 1 1 1 1
0 0 0 0 0 0 0 0 0 0 0 0 0 0 0 0 0 0 0 0 0 0 0 0 0 0 0 0 0 0 0 0 1 1 1 1 1 1
0 0 0 0 0 0 0 0 0 0 0 0 0 0 0 0 0 0 0 0 0 0 0 0 0 0 0 0 0 0 0 0 1 1 1 1 1 1
0 0 0 0 0 0 0 0 0 0 0 0 0 0 0 0 0 0 0 0 0 0 0 0 0 0 0 0 0 0 0 0 0 0 0 1 1 1
0 0 0 0 0 0 0 0 0 0 0 0 0 0 0 0 0 0 0 0 0 0 0 0 0 0 0 0 0 0 0 0 0 0 0 0 0 1
0 0 0 0 0 0 0 0 0 0 0 0 0 0 0 0 0 0 0 0 0 0 0 0 0 0 0 0 0 0 0 0 0 0 0 0 0 0
0 0 0 0 0 0 0 0 0 0 0 0 0 0 0 0 0 0 0 0 0 0 0 0 0 0 0 0 0 0 0 0 0 0 0 0 0 0
0 0 0 0 0 0 0 0 0 0 0 0 0 0 0 0 0 0 0 0 0 0 0 0 0 0 0 0 0 0 0 0 0 0 0 0 0 0
0 0 0 0 0 0 0 0 0 0 0 0 0 0 0 0 0 0 0 0 0 0 0 0 0 0 0 0 0 0 0 0 0 0 0 0 0 0
0 0 0 0 0 0 0 0 0 0 0 0 0 0 0 0 0 0 0 0 0 0 0 0 0 0 0 0 0 0 0 0 0 0 0 0 0 0
0 0 0 0 0 0 0 0 0 0 0 0 0 0 0 0 0 0 0 0 0 0 0 0 0 0 0 0 0 0 0 0 0 0 0 0 0 0
0 0 0 0 0 0 0 0 0 0 0 0 0 0 0 0 0 0 0 0 0 0 0 0 0 0 0 0 0 0 0 0 0 0 0 0 0 0
0 0 0 0 0 0 0 0 0 0 0 0 0 0 0 0 0 0 0 0 0 0 0 0 0 0 0 0 0 0 0 0 0 0 0 0 0 0
0 0 0 0 0 0 0 0 0 0 0 0 0 0 0 0 0 0 0 0 0 0 0 0 0 0 0 0 0 0 0 0 0 0 0 0 0 0
0 0 0 0 0 0 0 0 0 0 0 0 0 0 0 0 0 0 0 0 0 0 0 0 0 0 0 0 0 0 0 0 0 0 0 0 0 0
0 0 0 0 0 0 0 0 0 0 0 0 0 0 0 0 0 0 0 0 0 0 0 0 0 0 0 0 0 0 0 0 0 0 0 0 0 0
0 0 0 0 0 0 0 0 0 0 0 0 0 0 0 0 0 0 0 0 0 0 0 0 0 0 0 0 0 0 0 0 0 0 0 0 0 0
0 0 0 0 0 0 0 0 0 0 0 0 0 0 0 0 0 0 0 0 0 0 0 0 0 0 0 0 0 0 0 0 0 0 0 0 0 0
0 0 0 0 0 0 0 0 0 0 0 0 0 0 0 0 0 0 0 0 0 0 0 0 0 0 0 0 0 0 0 0 0 0 0 0 0 0
0 0 0 0 0 0 0 0 0 0 0 0 0 0 0 0 0 0 0 0 0 0 0 0 0 0 0 0 0 0 0 0 0 0 0 0 0 0
0 0 0 0 0 0 0 0 0 0 0 0 0 0 0 0 0 0 0 0 0 0 0 0 0 0 0 0 0 0 0 0 0 0 0 0 0 0
0 0 0 0 0 0 0 0 0 0 0 0 0 0 0 0 0 0 0 0 0 0 0 0 0 0 0 0 0 0 0 0 0 0 0 0 0 0
Wind_Speed
2 2 2 2 2 2 2 3 4 6 6 4 3 3 4 4 8 6 6 12 16 17 17 18 18 18 19 20 20 21 21 22 22 23 22 22 22 22
2 2 2 2 2 2 2 2 3 5 7 5 4 4 5 6 10 7 7 14 15 17 17 18 18 18 19 20 20 21 22 22 22 23 23 22 22 23
2 2 3 3 2 2 2 2 3 4 7 7 5 4 5 6 7 6 7 7 7 14 17 18 18 19 19 20 20 20 21 21 22 22 22 22 22 23
3 3 4 3 3 3 3 3 3 4 5 9 7 5 6 6 7 7 7 7 7 13 17 17 18 19 19 20 20 20 21 21 21 22 22 22 22 22
3 3 4 4 4 3 4 4 4 4 5 6 7 5 5 5 7 7 7 6 7 10 14 15 16 18 19 20 20 20 21 21 22 22 22 22 22 22
3 3 4 4 4 5 4 5 5 5 5 6 6 6 6 6 5 6 7 6 7 8 10 12 14 17 18 19 19 20 20 21 21 22 21 21 21 22
3 4 4 5 6 5 5 5 5 5 5 6 6 6 6 6 6 6 8 8 7 5 6 7 8 8 9 13 16 18 20 21 21 21 22 21 21 21
4 4 5 5 6 8 9 9 8 7 7 6 7 8 9 8 7 7 8 9 8 4 6 9 7 8 8 7 15 20 20 21 21 22 22 22 22 21
4 5 5 5 5 5 7 9 8 9 9 7 8 9 9 8 8 9 8 9 9 7 7 9 7 8 8 10 19 20 20 20 21 22 22 22 21 21
5 5 5 6 5 6 6 7 7 6 7 6 6 7 7 7 7 8 9 9 8 6 6 8 8 8 9 8 16 18 19 20 22 23 23 22 22 21
5 5 5 5 8 9 7 7 7 7 7 8 9 10 11 12 9 5 5 6 8 7 4 5 7 9 9 8 9 16 19 20 22 22 22 22 21 20
4 4 5 6 8 9 6 6 7 7 6 6 7 8 8 8 9 5 5 5 6 7 4 5 6 7 8 6 6 8 10 16 20 21 22 22 21 12
4 4 4 8 9 10 8 5 8 8 5 5 5 5 4 4 4 4 4 5 6 7 5 5 6 6 7 9 8 7 7 8 10 12 16 20 21 16
5 4 5 8 10 9 7 7 9 7 4 4 4 4 4 4 4 5 5 5 6 9 8 7 6 7 8 9 9 8 7 8 9 9 9 15 17 19
4 7 8 9 9 6 7 8 6 3 3 4 5 5 5 5 5 5 5 5 6 7 7 7 7 7 7 8 9 9 10 9 7 8 9 10 10 10
4 5 8 8 7 6 5 4 3 3 3 4 5 5 4 4 4 4 5 5 6 6 6 6 7 8 8 9 9 11 9 8 8 9 10 10 9 8
4 2 2 3 3 3 3 3 3 3 3 4 4 5 5 5 5 4 4 4 5 7 8 6 6 6 8 9 8 9 9 9 9 9 10 11 10 8
3 2 3 3 4 4 4 4 3 3 4 4 4 4 5 5 5 5 4 4 6 7 7 7 7 7 5 5 8 8 7 8 9 9 8 9 11 9
2 3 4 4 4 4 4 4 4 4 4 4 4 4 5 5 5 5 5 5 6 6 6 6 6 5 7 9 7 6 7 9 9 9 7 8 10 11
3 4 4 4 4 4 4 4 5 4 4 4 4 4 4 4 4 5 5 5 6 6 7 6 5 5 6 8 8 9 11 9 8 9 9 9 9 13
4 4 4 4 5 4 4 5 5 5 5 4 4 4 4 4 4 5 5 6 6 6 7 7 7 8 6 5 7 8 7 11 12 9 9 9 9 8
4 4 4 4 4 4 4 4 4 4 4 4 4 4 4 4 5 5 5 5 5 6 7 7 7 6 4 5 8 10 10 10 11 15 13 11 7 7
4 4 5 5 4 4 4 4 5 5 4 4 4 4 4 4 4 4 5 5 5 6 6 7 6 5 5 6 7 8 11 11 9 9 9 13 15 16
Wind_Direction
325 326 316 310 313 308 305 295 288 295 296 295 310 327 329 324 326 323 318 318 320 319 318 319 319 319 319 319 318 317 316 315 314 312 308 308 306 304
323 324 316 310 310 306 298 295 284 280 286 292 299 310 316 319 321 318 312 318 317 315 315 316 316 317 317 317 317 316 315 314 314 312 309 307 306 305
323 320 312 312 310 309 305 301 295 286 283 292 297 307 308 311 312 308 305 304 307 314 316 315 316 315 315 315 315 315 314 315 314 313 310 309 306 304
316 317 311 312 311 308 303 297 293 289 284 293 299 304 301 302 303 305 308 308 304 309 313 315 316 315 314 314 314 314 314 312 312 312 310 308 306 305
308 309 306 307 305 301 295 291 290 294 288 287 295 300 298 302 304 302 301 300 304 310 312 315 315 316 314 313 314 314 312 310 310 310 309 307 306 306
305 298 294 288 287 289 292 292 294 295 293 291 294 300 301 301 302 306 308 306 305 309 309 311 311 313 314 314 315 314 311 310 310 309 309 308 306 305
301 298 295 293 293 293 294 295 296 293 295 296 295 299 301 307 306 305 304 306 297 299 306 306 308 307 310 311 312 310 311 312 310 309 309 307 305 305
294 297 297 292 299 302 300 300 298 292 292 292 294 295 299 301 302 301 304 307 301 305 309 304 303 301 305 304 308 310 312 313 313 312 309 307 305 304
284 288 293 297 297 298 300 302 300 294 287 283 286 291 296 298 298 295 293 295 293 302 308 298 301 298 301 305 309 307 311 314 316 315 312 309 307 305
286 283 282 288 292 297 300 299 296 295 292 287 283 288 293 295 291 292 295 295 291 291 299 292 300 299 301 299 303 306 312 315 317 317 314 312 310 308
290 289 284 282 290 298 299 297 298 299 297 294 294 295 298 302 305 305 302 302 301 299 301 290 297 304 298 291 298 307 311 314 316 317 318 317 314 312
294 293 288 291 299 303 301 296 295 299 305 305 301 301 301 301 304 298 291 289 295 294 297 302 299 313 303 288 294 303 307 310 314 316 317 319 319 317
291 295 293 296 300 303 304 300 299 311 308 301 298 298 301 303 303 301 291 283 284 280 290 302 294 295 285 295 300 300 302 307 312 312 316 318 318 318
285 287 291 299 302 304 306 306 312 318 312 306 302 300 299 300 303 304 299 290 281 280 284 287 282 287 292 292 293 300 302 303 306 307 311 315 315 314
288 289 296 299 304 306 307 310 315 309 302 297 295 296 299 298 302 305 303 299 293 285 282 282 280 285 280 282 289 296 306 306 305 309 312 312 310 309
291 296 296 297 300 307 316 310 302 293 290 289 294 298 305 305 302 306 307 313 308 301 289 282 280 281 283 281 281 287 294 297 307 310 309 305 303 298
300 301 302 300 293 296 297 293 291 291 289 291 294 298 300 302 303 307 303 305 296 299 307 309 297 284 275 276 281 281 290 295 299 308 312 308 303 302
312 288 283 284 282 287 292 292 287 285 286 288 287 285 289 293 299 304 303 297 296 297 301 309 317 316 303 276 257 279 290 297 304 306 305 304 303 305
276 272 272 275 277 280 281 280 281 284 284 281 282 283 285 288 290 294 298 298 296 297 299 302 308 314 314 310 296 286 300 304 307 307 303 299 296 301
257 263 267 270 272 273 275 276 279 284 280 277 279 277 278 282 284 286 287 289 295 299 301 300 298 300 293 292 294 295 300 299 303 305 306 302 291 294
265 266 267 269 270 270 271 272 271 274 274 273 273 273 273 276 279 281 284 287 289 291 295 296 297 302 295 292 291 292 294 302 307 303 304 305 307 306
270 271 272 270 270 269 270 270 271 271 271 270 271 272 271 269 272 277 279 282 283 284 289 296 306 309 300 290 293 297 303 308 310 310 306 299 298 302
268 270 271 270 268 268 268 268 267 269 267 265 267 269 270 272 273 273 275 276 282 291 299 303 308 306 297 291 293 296 302 309 313 317 310 310 306 295